INTELSAT 21 (IS-21)

Last updated on Sun Apr 12 2026 00:02:52 GMT+0000 (Coordinated Universal Time)

1 38749U 12045A 26101.50916402 -.00000283 00000+0 00000+0 0 9992 2 38749 0.0176 119.5224 0001975 276.5979 288.9137 1.00272423 49853
UTC large
Height (km)
Speed (km/s)
/
Latitude / Longitude
Inclination (degrees)
Orbital Period (minutes)
Azimuth
Elevation
Range (km)
Doppler Factor

Next 0 passes for location: London (51.5072 / 0.1276)

Sorry there are no passes over London.
INTELSAT 21 (IS-21)